STARLINK-31563, 59190

Orbit data source: Space-Track

STARLINK-31563, 59190 is a payload satellite owned by SpaceX/Seattle (US) in LEO that was launched on Sun, 10 Mar 2024 UTC via an FALCON 9 launch vehicle from the Air Force Eastern Test Range (AFETR). Payload-class satellites include a variety of spacecraft equipped with specific instruments for various scientific and technological missions. These include communications satellites like Starlink; space stations such as the ISS; scientific satellites like the Hubble; Earth observation satellites from companies like Planet Labs, Umbra, and HawkEye 360; GPS; miniature CubeSats for education and research; and military/defense satellites.

Loading next visibility...
Identifier
59190, 2024-045N
Orbit
LEO
Country
Flag of USUS
Related business
Manufacturer
SpaceX/Seattle
Mission
Operational Commercial Communications
Bus & Motor
STARLINK V2M, Unknown motor
Mass
730 kg wet, ~700 kg dry
Launch date (UTC)
2024-03-10 (2 years ago)
Launch vehicle
FALCON 9
Launch site
Air Force Eastern Test Range (AFETR)
Object type
Payload
Rocket body
Debris
Shape & HBR
Box + 2 Pan, 17.7 m
Radar Cross Section
33.884 m², Large (>1 m²)

Expand to show TLE details & history
Last TLE update: 2 days ago

TLE from 2 days ago
0 STARLINK-31563
1 59190U 24045N   26171.47653610 -.00000147  00000-0  41854-5 0  9998
2 59190  43.0041 231.8577 0001543 273.6764  86.3912 15.27577576128887
Epoch: 2026-06-20T11:26Z
TLE epoch observation values (Epoch: 2026-06-20T11:26:12.719Z)
Latitude
0.00005°
Longitude
151.61415°
Altitude
482.766 km
Speed
7.626 km/s
True Right ascension
15h 27m 25s
True Declination
0° 00' 00"
Sunlit
Object was in full shadow at epoch
Visualization orbit readout
Latitude
Unknown
Longitude
Unknown
Altitude
Unknown
Speed
Unknown
Apparent Right ascension
Unknown
Apparent Declination
Unknown
Sunlit
N/A
Visualization observer readout
Local Sidereal Time
21:30:25
Azimuth
Unknown
Elevation
Unknown
Doppler factor
Unknown
Orbital elements
Apogee altitude
486.06 km
Perigee altitude
483.942 km
Semi-major axis
6,863.138 km
Eccentricity
0.00015
Inclination
43.0041°
RAAN
231.8577°
Arg. of periapsis
273.6764°
True anomaly
86.40885°
Mean anomaly
86.3912°
Eccentric anomaly
86.40002°
Mean motion
3.81732 °/min
Orbital period
94.31 mins
BSTAR
0.0000041854
Loading maneuver chart data...
Computing Atmospheric mass density...
Loading historical data...
Loading historical data...
Loading historical data...
Loading historical data...
Loading historical data...
Loading historical data...
Loading historical data...

Documentation

Showing up to 5 results
|